Track CELESTIS 16 (OTB) now! 10-day predictions CELESTIS 16 (OTB) is classified as:
1 44341U 19036C 23267.92452337 .00001337 00000-0 26278-3 0 9992 2 44341 23.9963 154.4406 0011504 237.5517 122.3861 14.53799555226067